Regional Weather Roundup
Issued by NWS

Home | Current Version | Previous Version | Graphics & Text | Print | Product List | Glossary Off
Versions: 1 2 3 4 5 6 7 8 9 10 11 12 13 14 15 16 17 18 19 20 21 22 23 24 25 26 27 28 29 30 31 32 33 34 35 36 37 38 39 40 41 42 43 44 45 46 47 48 49 50

000
ASUS43 KMKX 171600
RWRWI

WISCONSIN REGIONAL WEATHER ROUNDUP
NATIONAL WEATHER SERVICE MILWAUKEE/SULLIVAN WI
1000 AM CST FRI NOV 17 2017

NOTE: "FAIR" INDICATES FEW OR NO CLOUDS BELOW 12,000 FEET WITH NO
SIGNIFICANT WEATHER AND/OR OBSTRUCTIONS TO VISIBILITY.

WIZ001-002-006>008-014>016-023>028-171700-
NORTHWEST WISCONSIN

CITY           SKY/WX    TMP DP  RH WIND       PRES   REMARKS
SUPERIOR ARPT  CLOUDY    33  32  95 CALM      29.74S FOG
ASHLAND        CLOUDY    35  28  75 S10G22    29.74F WCI  27
HAYWARD        FRZ RAIN  33  30  88 S10       29.72F FOG     WCI  25
SIREN          DRIZZLE   33  32  96 S9        29.71F WCI  25
CUMBERLAND     DRIZZLE   32  30  93 S13       29.72F WCI  22
RICE LAKE      CLOUDY    34  29  82 SE15      29.74F WCI  25
CHETEK         CLOUDY    34  29  82 SE12G20   29.75F WCI  26
LADYSMITH      CLOUDY    34  30  86 S7G17     29.78S WCI  28
EAU CLAIRE     NOT AVBL
MENOMONIE      CLOUDY    37  31  81 SE9       29.74F WCI  30
NEW RICHMOND   DRIZZLE   35  32  92 S10       29.71F WCI  27
OSCEOLA        DRIZZLE   34  34 100 SE8       29.73F WCI  28
$$

WIZ003>005-009-010-017-018-171700-
NORTH CENTRAL WISCONSIN

CITY           SKY/WX    TMP DP  RH WIND       PRES   REMARKS
MANITOWISH WTR MIX PCPN  31  31 100 SE13G20   29.77F WCI  22
ARBOR VITAE    CLOUDY    34  31  89 S14G20    29.79F WCI  24
WOODRUFF       CLOUDY    34  31  89 S14G20    29.79F WCI  24
RHINELANDER    CLOUDY    32  29  88 SE12G20   29.81F WCI  23
EAGLE RIVER    CLOUDY    32  30  93 S7        29.80F WCI  26
LAND O LAKES   CLOUDY    32  30  92 S12G22    29.83F WCI  23
PHILLIPS       MIX PCPN  32  31  96 SE12      29.75F WCI  23
TOMAHAWK       CLOUDY    32  28  84 SE7       29.81F FOG     WCI  25
MEDFORD        MIX PCPN  32  28  85 SE17      29.78F WCI  21
MERRILL        CLOUDY    33  29  84 S10G17    29.82F WCI  25
$$

WIZ029-030-035-036-043>047-171700-
CENTRAL WISCONSIN

CITY           SKY/WX    TMP DP  RH WIND       PRES   REMARKS
WAUSAU         CLOUDY    34  29  82 SE13      29.83F WCI  25
MOSINEE        CLOUDY    34  30  86 SE14G20   29.85F WCI  24
MARSHFIELD     CLOUDY    34  27  75 SE14G24   29.80F WCI  25
STEVENS POINT  CLOUDY    33  28  83 SE10      29.88F WCI  25
WAUPACA        CLOUDY    38  31  77 SE12G17   29.92F WCI  30
WAUTOMA        CLOUDY    36  29  75 S15       29.90S WCI  27
WISC RAPIDS    CLOUDY    36  29  75 S10       29.85F WCI  28
CAMP DOUGLAS   CLOUDY    37  28  70 SE12      29.83F WCI  30
$$

WIZ011>013-019>022-031-037>040-048>050-171700-
NORTHEAST WISCONSIN

CITY           SKY/WX    TMP DP  RH WIND       PRES   REMARKS
ANTIGO         CLOUDY    31  30  94 S17G23    29.87F WCI  20
SHAWANO        CLOUDY    38  32  80 S7        29.92F WCI  32
OCONTO         CLOUDY    40  35  83 S9        29.95F WCI  33
STURGEON BAY   CLOUDY    42  36  79 S23G30    29.95S
GREEN BAY      CLOUDY    39  34  82 S17G26    29.93F WCI  30
MANITOWOC      NOT AVBL
APPLETON       CLOUDY    36  28  75 S18G25    29.91F WCI  25
CLINTONVILLE   CLOUDY    36  28  75 S10G17    29.92F WCI  28
OSHKOSH        CLOUDY    37  30  75 S18       29.91F WCI  27
$$

WIZ032>034-041-042-053>061-171700-
SOUTHWEST WISCONSIN

CITY           SKY/WX    TMP DP  RH WIND       PRES   REMARKS
LA CROSSE      CLOUDY    39  32  76 S17       29.80F WCI  30
SPARTA         CLOUDY    37  31  78 S5        29.83F WCI  33
VIROQUA        CLOUDY    35  32  91 S16       29.80F WCI  25
BOSCOBEL       CLOUDY    39  30  70 VRB3      29.85F
PRAIRIE DU CHI CLOUDY    36  31  82 SE10G17   29.85F HAZE    WCI  28
PLATTEVILLE    CLOUDY    36  32  85 SE16      29.88F WCI  26
$$

WIZ056-057-062-063-064-067-068-171700-
SOUTH CENTRAL WISCONSIN

CITY           SKY/WX    TMP DP  RH WIND       PRES   REMARKS
REEDSBURG      CLOUDY    35  29  80 SE12      29.87F WCI  27
BARABOO/DELLS  CLOUDY    35  29  78 S15G24    29.88S WCI  25
LONE ROCK      NOT AVBL
MINERAL POINT  CLOUDY    36  34  93 SE23      29.86F WCI  24
MADISON        CLOUDY    36  29  75 S21G31    29.91F WCI  25
MIDDLETON      CLOUDY    37  31  78 S21G30    29.91F WCI  26
WATERTOWN      CLOUDY    36  32  87 SE15      29.94F WCI  26
MONROE         CLOUDY    34  30  86 S23       29.93S WCI  22
JANESVILLE     CLOUDY    37  30  75 S16       29.96F WCI  28
$$

WIZ051-052-058>065-066-070>072-171700-
SOUTHEAST WISCONSIN

CITY           SKY/WX    TMP DP  RH WIND       PRES   REMARKS
MILWAUKEE      CLOUDY    40  32  73 S15       29.99F WCI  32
WAUKESHA       NOT AVBL
MILWAUKEE/TIMM CLOUDY    37  28  70 S12       30.00F WCI  30
RACINE         CLOUDY    38  32  79 S14       30.02F WCI  30
BURLINGTON     PTSUNNY   38  35  86 S14       29.99F WCI  30
KENOSHA        CLOUDY    39  30  70 S15       30.00F WCI  31
FOND DU LAC    CLOUDY    37  30  75 S18G25    29.92F WCI  27
SHEBOYGAN      CLOUDY    39  35  86 S15G28    29.97F WCI  31
WEST BEND      CLOUDY    36  32  87 S10G17    29.97F WCI  28
JUNEAU         CLOUDY    35  31  84 SE15G23   29.95F WCI  25
$$

LSZ147-162-171700-
LAKE SUPERIOR

STATION/POSITION TIME  TEMP    WIND        PRES    WAVE
                       AIR SEA DIR/SP/G            HT/PER
                 (UTC) (F)     (DEG/KT/KT) (MB)    (FT/S)
DEVILS ISLAND    1500   35     190/  6/  8 1007.8F
SAXON HARBOR     1540   37     200/  9/ 17 1006.4F
$$

LMZ867-665-643>646-171700-
LAKE MICHIGAN

STATION/POSITION TIME  TEMP    WIND        PRES    WAVE
                       AIR SEA DIR/SP/G            HT/PER
                 (UTC) (F)     (DEG/KT/KT) (MB)    (FT/S)
N MID LAKE BUOY  1450   38 49  160/ 21/ 25 1017.6F   4/ 5
NORTHPORT PIER   1547   40     150/ 17/ 27 1014.9F
KEWAUNEE LAKESHO 1530   41     180/ 24/ 30 1014.4F
PORT WASHINGTON  1540   39     170/ 18/ 23 1016.3F
MILWAUKEE LAKESH 1530   38     180/ 13/ 15   N/A
S MID LAKE BUOY  1450   41 50  160/ 21/ 25 1018.8F   5/ 5
KENOSHA   LAKESH 1500   37     180/ 18/ 26 1017.3
$$

TC  - TEMPERATURE IN CELSIUS
VSB - VISIBILITY IN STATUTE MILES
WCI - WIND CHILL INDEX
HX  - HEAT INDEX





USA.gov is the U.S. government's official web portal to all federal, state and local government web resources and services.